Time,TemperatureF,DewpointF,PressureIn,WindDirection,WindDirectionDegrees,WindSpeedMPH,WindSpeedGustMPH,Humidity,HourlyPrecipIn,Conditions,Clouds,dailyrainin,SoftwareType,DateUTC
2013-06-29 00:00:00,70.9,68.7,29.51,SSW,207,0.0,0.0,93,0.00,,,0.00,meteobridge,2013-06-29 04:00:00,
2013-06-29 00:01:00,70.9,68.7,29.51,SSW,207,0.0,0.0,93,0.00,,,0.00,meteobridge,2013-06-29 04:01:00,
2013-06-29 00:03:00,70.9,69.1,29.51,SSW,207,0.0,0.0,94,0.00,,,0.00,meteobridge,2013-06-29 04:03:00,
2013-06-29 00:04:00,70.9,69.1,29.51,SSW,207,0.0,0.0,94,0.00,,,0.00,meteobridge,2013-06-29 04:04:00,
2013-06-29 00:06:00,70.9,68.7,29.51,SSW,207,0.0,0.0,93,0.00,,,0.00,meteobridge,2013-06-29 04:06:00,
2013-06-29 00:12:00,70.5,68.4,29.51,SSW,207,0.0,0.0,93,0.00,,,0.00,meteobridge,2013-06-29 04:12:00,
2013-06-29 00:17:00,70.3,68.5,29.51,SSW,207,0.0,0.0,94,0.00,,,0.00,meteobridge,2013-06-29 04:17:00,
2013-06-29 00:22:00,70.3,68.5,29.50,SSW,207,0.0,0.0,94,0.00,,,0.00,meteobridge,2013-06-29 04:22:00,
2013-06-29 00:28:00,70.2,68.4,29.50,SSW,207,0.0,0.0,94,0.00,,,0.00,meteobridge,2013-06-29 04:28:00,
2013-06-29 00:34:00,70.0,68.2,29.50,SSW,207,0.0,0.0,94,0.00,,,0.00,meteobridge,2013-06-29 04:34:00,
2013-06-29 00:39:00,69.6,68.2,29.50,SSW,207,0.9,0.9,95,0.00,,,0.00,meteobridge,2013-06-29 04:39:00,
2013-06-29 00:44:00,69.4,68.0,29.51,SSW,207,0.0,0.9,95,0.00,,,0.00,meteobridge,2013-06-29 04:44:00,
2013-06-29 00:49:00,69.4,68.0,29.50,SSW,207,0.0,0.0,95,0.00,,,0.00,meteobridge,2013-06-29 04:49:00,
2013-06-29 00:54:00,69.3,67.8,29.50,SSW,207,0.0,0.0,95,0.00,,,0.00,meteobridge,2013-06-29 04:54:00,
2013-06-29 01:00:00,69.3,68.0,29.50,SSW,207,0.0,0.0,96,0.00,,,0.00,meteobridge,2013-06-29 05:00:00,
2013-06-29 01:05:00,69.3,68.0,29.49,SSW,207,0.0,0.0,96,0.00,,,0.00,meteobridge,2013-06-29 05:05:00,
2013-06-29 01:11:00,69.3,68.0,29.49,SSW,207,0.0,0.0,96,0.00,,,0.00,meteobridge,2013-06-29 05:11:00,
2013-06-29 01:16:00,69.3,68.0,29.49,SSW,207,0.0,0.0,96,0.00,,,0.00,meteobridge,2013-06-29 05:16:00,
2013-06-29 01:21:00,69.3,68.4,29.49,SSW,207,0.0,0.0,97,0.00,,,0.00,meteobridge,2013-06-29 05:21:00,
2013-06-29 01:26:00,69.4,68.5,29.50,SSW,207,0.0,0.0,97,0.00,,,0.00,meteobridge,2013-06-29 05:26:00,
2013-06-29 01:32:00,69.3,68.0,29.49,SSW,207,0.0,0.0,96,0.00,,,0.00,meteobridge,2013-06-29 05:32:00,
2013-06-29 01:37:00,69.3,68.0,29.50,SSW,207,0.0,0.0,96,0.00,,,0.00,meteobridge,2013-06-29 05:37:00,
2013-06-29 01:42:00,69.3,68.0,29.51,SSW,207,0.0,0.0,96,0.00,,,0.00,meteobridge,2013-06-29 05:42:00,
2013-06-29 01:48:00,69.3,67.8,29.50,SSW,207,0.0,0.0,95,0.00,,,0.00,meteobridge,2013-06-29 05:48:00,
2013-06-29 01:53:00,69.1,67.6,29.50,SSW,207,0.0,2.0,95,0.00,,,0.00,meteobridge,2013-06-29 05:53:00,
2013-06-29 01:58:00,69.1,67.3,29.50,SSW,194,0.0,0.9,94,0.00,,,0.00,meteobridge,2013-06-29 05:58:00,
2013-06-29 02:03:00,69.1,67.3,29.50,SSW,194,0.0,0.0,94,0.00,,,0.00,meteobridge,2013-06-29 06:03:00,
2013-06-29 02:08:00,69.1,67.6,29.50,WNW,292,0.0,0.0,95,0.00,,,0.00,meteobridge,2013-06-29 06:08:00,
2013-06-29 02:13:00,68.9,67.1,29.50,WNW,292,0.0,0.0,94,0.00,,,0.00,meteobridge,2013-06-29 06:13:00,
2013-06-29 02:19:00,68.9,67.1,29.50,WNW,292,0.0,0.0,94,0.00,,,0.00,meteobridge,2013-06-29 06:19:00,
2013-06-29 02:24:00,68.7,66.9,29.50,WNW,292,0.0,0.0,94,0.00,,,0.00,meteobridge,2013-06-29 06:24:00,
2013-06-29 02:29:00,68.7,66.9,29.50,WNW,292,0.0,0.0,94,0.00,,,0.00,meteobridge,2013-06-29 06:29:00,
2013-06-29 02:34:00,68.7,66.9,29.49,WNW,292,0.0,0.0,94,0.00,,,0.00,meteobridge,2013-06-29 06:34:00,
2013-06-29 02:39:00,68.5,66.7,29.49,WNW,292,0.0,0.9,94,0.00,,,0.00,meteobridge,2013-06-29 06:39:00,
2013-06-29 02:45:00,68.5,66.7,29.49,WNW,292,0.0,0.0,94,0.00,,,0.00,meteobridge,2013-06-29 06:45:00,
2013-06-29 02:50:00,68.4,66.6,29.49,WNW,292,0.0,0.0,94,0.00,,,0.00,meteobridge,2013-06-29 06:50:00,
2013-06-29 02:55:00,68.4,66.9,29.49,WNW,292,0.0,0.0,95,0.00,,,0.00,meteobridge,2013-06-29 06:55:00,
2013-06-29 03:01:00,68.2,66.7,29.49,WNW,292,0.0,0.0,95,0.00,,,0.00,meteobridge,2013-06-29 07:01:00,
2013-06-29 03:07:00,68.2,66.7,29.49,WNW,292,0.0,0.0,95,0.00,,,0.00,meteobridge,2013-06-29 07:07:00,
2013-06-29 03:12:00,68.0,66.6,29.49,WNW,292,0.0,0.0,95,0.00,,,0.00,meteobridge,2013-06-29 07:12:00,
2013-06-29 03:17:00,67.8,66.4,29.50,WNW,292,0.0,0.0,95,0.00,,,0.00,meteobridge,2013-06-29 07:17:00,
2013-06-29 03:22:00,67.6,66.2,29.50,WNW,292,0.0,0.0,95,0.00,,,0.00,meteobridge,2013-06-29 07:22:00,
2013-06-29 03:27:00,67.6,66.2,29.49,WNW,292,0.0,0.0,95,0.00,,,0.00,meteobridge,2013-06-29 07:27:00,
2013-06-29 03:32:00,67.5,66.0,29.49,WNW,292,0.0,0.0,95,0.00,,,0.00,meteobridge,2013-06-29 07:32:00,
2013-06-29 03:38:00,67.5,66.0,29.49,WNW,292,0.0,0.0,95,0.00,,,0.00,meteobridge,2013-06-29 07:38:00,
2013-06-29 03:44:00,67.3,65.8,29.49,WNW,292,0.0,0.0,95,0.00,,,0.00,meteobridge,2013-06-29 07:44:00,
2013-06-29 03:49:00,67.3,65.8,29.49,WNW,292,0.0,0.0,95,0.00,,,0.00,meteobridge,2013-06-29 07:49:00,
2013-06-29 03:55:00,66.9,65.7,29.49,WNW,292,0.0,0.0,96,0.00,,,0.00,meteobridge,2013-06-29 07:55:00,
2013-06-29 04:00:00,66.7,65.5,29.49,WNW,292,0.0,0.0,96,0.00,,,0.00,meteobridge,2013-06-29 08:00:00,
2013-06-29 04:05:00,66.7,65.5,29.49,WNW,292,0.0,0.0,96,0.00,,,0.00,meteobridge,2013-06-29 08:05:00,
2013-06-29 04:11:00,66.7,65.5,29.49,WNW,292,0.0,0.0,96,0.00,,,0.00,meteobridge,2013-06-29 08:11:00,
2013-06-29 04:17:00,66.6,65.3,29.49,WNW,292,0.0,0.0,96,0.00,,,0.00,meteobridge,2013-06-29 08:17:00,
2013-06-29 04:22:00,66.4,65.1,29.50,WNW,292,0.0,0.0,96,0.00,,,0.00,meteobridge,2013-06-29 08:22:00,
2013-06-29 04:27:00,66.4,65.1,29.51,WNW,292,0.0,0.0,96,0.00,,,0.00,meteobridge,2013-06-29 08:27:00,
2013-06-29 04:33:00,66.2,64.9,29.51,WNW,292,0.0,0.0,96,0.00,,,0.00,meteobridge,2013-06-29 08:33:00,
2013-06-29 04:38:00,66.0,64.8,29.52,WNW,292,0.0,0.0,96,0.00,,,0.00,meteobridge,2013-06-29 08:38:00,
2013-06-29 04:43:00,66.0,64.8,29.52,WNW,292,0.0,0.0,96,0.00,,,0.00,meteobridge,2013-06-29 08:43:00,
2013-06-29 04:45:00,66.0,64.8,29.52,WNW,292,0.0,0.0,96,0.00,,,0.00,meteobridge,2013-06-29 08:45:00,
2013-06-29 04:50:00,66.0,65.1,29.53,WNW,292,0.0,0.0,97,0.00,,,0.00,meteobridge,2013-06-29 08:50:00,
2013-06-29 04:56:00,65.8,64.9,29.53,WNW,292,0.0,0.0,97,0.00,,,0.00,meteobridge,2013-06-29 08:56:00,
2013-06-29 05:01:00,65.8,64.9,29.53,WNW,292,0.0,0.0,97,0.00,,,0.00,meteobridge,2013-06-29 09:01:00,
2013-06-29 05:06:00,66.0,65.1,29.53,WNW,292,0.0,0.0,97,0.00,,,0.00,meteobridge,2013-06-29 09:06:00,
2013-06-29 05:11:00,65.8,64.9,29.53,WNW,292,0.0,0.0,97,0.00,,,0.00,meteobridge,2013-06-29 09:11:00,
2013-06-29 05:17:00,65.8,64.9,29.53,WNW,292,0.0,0.0,97,0.00,,,0.00,meteobridge,2013-06-29 09:17:00,
2013-06-29 05:23:00,65.8,64.9,29.53,WNW,292,0.0,0.0,97,0.00,,,0.00,meteobridge,2013-06-29 09:23:00,
2013-06-29 05:28:00,65.8,64.9,29.53,WNW,292,0.0,0.0,97,0.00,,,0.00,meteobridge,2013-06-29 09:28:00,
2013-06-29 05:34:00,65.8,64.9,29.53,WNW,292,0.0,0.0,97,0.00,,,0.00,meteobridge,2013-06-29 09:34:00,
2013-06-29 05:39:00,65.8,64.9,29.54,WNW,292,0.0,0.0,97,0.00,,,0.00,meteobridge,2013-06-29 09:39:00,
2013-06-29 05:45:00,65.8,65.3,29.53,WNW,292,0.0,0.0,98,0.00,,,0.00,meteobridge,2013-06-29 09:45:00,
2013-06-29 05:50:00,65.8,64.9,29.54,WNW,292,0.0,0.0,97,0.00,,,0.00,meteobridge,2013-06-29 09:50:00,
2013-06-29 05:56:00,65.7,64.8,29.54,WNW,292,0.0,0.0,97,0.00,,,0.00,meteobridge,2013-06-29 09:56:00,
2013-06-29 06:01:00,65.7,64.8,29.54,WNW,292,0.0,0.0,97,0.00,,,0.00,meteobridge,2013-06-29 10:01:00,
2013-06-29 06:06:00,65.7,64.8,29.54,WNW,292,0.0,0.0,97,0.00,,,0.00,meteobridge,2013-06-29 10:06:00,
2013-06-29 06:12:00,65.7,64.8,29.54,WNW,292,0.0,0.0,97,0.00,,,0.00,meteobridge,2013-06-29 10:12:00,
2013-06-29 06:17:00,65.7,65.1,29.55,WNW,292,0.0,0.0,98,0.00,,,0.00,meteobridge,2013-06-29 10:17:00,
2013-06-29 06:22:00,65.7,65.1,29.54,WNW,292,0.0,0.0,98,0.00,,,0.00,meteobridge,2013-06-29 10:22:00,
2013-06-29 06:27:00,65.8,65.3,29.55,WNW,292,0.0,0.0,98,0.00,,,0.00,meteobridge,2013-06-29 10:27:00,
2013-06-29 06:33:00,65.8,65.3,29.55,WNW,292,0.0,0.0,98,0.00,,,0.00,meteobridge,2013-06-29 10:33:00,
2013-06-29 06:38:00,66.0,65.5,29.56,WNW,292,0.0,0.0,98,0.00,,,0.00,meteobridge,2013-06-29 10:38:00,
2013-06-29 06:43:00,66.2,65.8,29.56,WNW,292,0.0,0.0,99,0.00,,,0.00,meteobridge,2013-06-29 10:43:00,
2013-06-29 06:48:00,66.6,66.0,29.56,WNW,292,0.0,0.0,98,0.00,,,0.00,meteobridge,2013-06-29 10:48:00,
2013-06-29 06:54:00,66.6,66.0,29.56,WNW,292,0.0,0.0,98,0.00,,,0.00,meteobridge,2013-06-29 10:54:00,
2013-06-29 06:59:00,66.7,66.4,29.55,WNW,292,0.0,0.0,99,0.00,,,0.00,meteobridge,2013-06-29 10:59:00,
2013-06-29 07:04:00,66.7,66.4,29.55,WNW,292,0.0,0.0,99,0.00,,,0.00,meteobridge,2013-06-29 11:04:00,
2013-06-29 07:10:00,66.9,66.6,29.55,WNW,292,0.0,0.0,99,0.00,,,0.00,meteobridge,2013-06-29 11:10:00,
2013-06-29 07:15:00,67.3,66.7,29.56,South,190,0.9,2.9,98,0.00,,,0.00,meteobridge,2013-06-29 11:15:00,
2013-06-29 07:20:00,67.5,67.1,29.56,SSW,202,0.9,2.9,99,0.00,,,0.00,meteobridge,2013-06-29 11:20:00,
2013-06-29 07:26:00,67.8,67.3,29.56,SSW,204,0.0,0.9,98,0.00,,,0.00,meteobridge,2013-06-29 11:26:00,
2013-06-29 07:32:00,68.2,67.3,29.56,SSW,204,0.0,0.9,97,0.00,,,0.00,meteobridge,2013-06-29 11:32:00,
2013-06-29 07:37:00,68.5,67.6,29.57,SSW,204,0.0,2.0,97,0.00,,,0.00,meteobridge,2013-06-29 11:37:00,
2013-06-29 07:42:00,68.7,67.5,29.57,SSW,203,0.0,2.0,96,0.00,,,0.00,meteobridge,2013-06-29 11:42:00,
2013-06-29 07:48:00,69.1,67.6,29.57,SSW,203,0.9,2.9,95,0.00,,,0.00,meteobridge,2013-06-29 11:48:00,
2013-06-29 07:53:00,69.3,67.8,29.57,SSW,203,0.0,0.9,95,0.00,,,0.00,meteobridge,2013-06-29 11:53:00,
2013-06-29 07:58:00,69.4,67.6,29.56,SSW,203,0.0,2.0,94,0.00,,,0.00,meteobridge,2013-06-29 11:58:00,
2013-06-29 08:03:00,69.6,67.8,29.57,SSW,192,0.9,2.9,94,0.00,,,0.00,meteobridge,2013-06-29 12:03:00,
2013-06-29 08:09:00,69.8,68.0,29.57,SSW,195,0.0,0.9,94,0.00,,,0.00,meteobridge,2013-06-29 12:09:00,
2013-06-29 08:14:00,70.0,68.2,29.57,SSW,213,0.9,2.0,94,0.00,,,0.00,meteobridge,2013-06-29 12:14:00,
2013-06-29 08:20:00,70.2,68.0,29.57,SSW,194,0.9,2.9,93,0.00,,,0.00,meteobridge,2013-06-29 12:20:00,
2013-06-29 08:25:00,70.3,68.2,29.57,SW,224,0.0,0.9,93,0.00,,,0.00,meteobridge,2013-06-29 12:25:00,
2013-06-29 08:31:00,70.3,68.2,29.57,SSW,207,0.0,0.9,93,0.00,,,0.00,meteobridge,2013-06-29 12:31:00,
2013-06-29 08:36:00,70.5,68.0,29.57,SSW,207,0.0,2.0,92,0.00,,,0.00,meteobridge,2013-06-29 12:36:00,
2013-06-29 08:41:00,70.7,68.2,29.57,SW,229,0.0,0.9,92,0.00,,,0.00,meteobridge,2013-06-29 12:41:00,
2013-06-29 08:46:00,70.9,68.4,29.57,SW,223,2.0,2.0,92,0.00,,,0.00,meteobridge,2013-06-29 12:46:00,
2013-06-29 08:52:00,71.1,68.4,29.57,SW,229,0.9,2.0,91,0.00,,,0.00,meteobridge,2013-06-29 12:52:00,
2013-06-29 08:57:00,71.1,68.0,29.58,South,190,2.0,4.0,90,0.00,,,0.00,meteobridge,2013-06-29 12:57:00,
2013-06-29 09:02:00,71.2,68.5,29.58,South,183,2.0,2.9,91,0.00,,,0.00,meteobridge,2013-06-29 13:02:00,
2013-06-29 09:07:00,71.2,68.5,29.58,SSE,150,0.0,0.9,91,0.00,,,0.00,meteobridge,2013-06-29 13:07:00,
2013-06-29 09:13:00,71.4,68.4,29.58,SW,227,0.0,4.0,90,0.00,,,0.00,meteobridge,2013-06-29 13:13:00,
2013-06-29 09:18:00,71.4,68.4,29.58,WSW,252,0.0,2.0,90,0.00,,,0.00,meteobridge,2013-06-29 13:18:00,
2013-06-29 09:23:00,71.6,68.5,29.58,SSW,194,0.0,0.9,90,0.00,,,0.00,meteobridge,2013-06-29 13:23:00,
2013-06-29 09:29:00,71.8,68.7,29.58,SSW,192,0.9,2.0,90,0.00,,,0.00,meteobridge,2013-06-29 13:29:00,
2013-06-29 09:34:00,72.1,69.1,29.58,West,259,0.0,0.9,90,0.00,,,0.00,meteobridge,2013-06-29 13:34:00,
2013-06-29 09:39:00,72.3,68.2,29.58,NW,304,0.0,2.9,87,0.00,,,0.00,meteobridge,2013-06-29 13:39:00,
2013-06-29 09:44:00,72.7,68.5,29.58,WNW,300,0.0,2.0,87,0.00,,,0.00,meteobridge,2013-06-29 13:44:00,
2013-06-29 09:49:00,73.0,68.9,29.58,WNW,293,0.9,2.0,87,0.00,,,0.00,meteobridge,2013-06-29 13:49:00,
2013-06-29 09:54:00,73.4,69.3,29.58,SSW,201,0.0,2.9,87,0.00,,,0.00,meteobridge,2013-06-29 13:54:00,
2013-06-29 10:00:00,73.6,69.1,29.59,SSE,168,0.9,0.9,86,0.00,,,0.00,meteobridge,2013-06-29 14:00:00,
2013-06-29 10:05:00,73.8,68.5,29.59,SW,221,0.0,2.0,84,0.00,,,0.00,meteobridge,2013-06-29 14:05:00,
2013-06-29 10:11:00,73.8,68.5,29.59,WSW,255,0.0,0.9,84,0.00,,,0.00,meteobridge,2013-06-29 14:11:00,
2013-06-29 10:16:00,73.9,69.1,29.59,West,273,0.0,0.0,85,0.00,,,0.00,meteobridge,2013-06-29 14:16:00,
2013-06-29 10:21:00,74.1,68.5,29.59,SW,234,0.0,0.9,83,0.00,,,0.00,meteobridge,2013-06-29 14:21:00,
2013-06-29 10:26:00,74.1,67.6,29.59,WNW,301,0.9,4.0,80,0.00,,,0.00,meteobridge,2013-06-29 14:26:00,
2013-06-29 10:32:00,74.5,67.8,29.59,West,264,0.0,2.9,80,0.00,,,0.00,meteobridge,2013-06-29 14:32:00,
2013-06-29 10:37:00,74.5,67.8,29.59,SW,219,0.9,4.0,80,0.00,,,0.00,meteobridge,2013-06-29 14:37:00,
2013-06-29 10:42:00,74.5,67.5,29.59,South,191,0.9,2.0,79,0.00,,,0.00,meteobridge,2013-06-29 14:42:00,
2013-06-29 10:47:00,74.7,67.3,29.59,WNW,290,2.0,4.0,78,0.00,,,0.00,meteobridge,2013-06-29 14:47:00,
2013-06-29 10:53:00,74.7,67.3,29.59,SW,225,2.9,4.0,78,0.00,,,0.00,meteobridge,2013-06-29 14:53:00,
2013-06-29 10:58:00,74.8,67.1,29.59,SW,234,0.0,4.0,77,0.00,,,0.00,meteobridge,2013-06-29 14:58:00,
2013-06-29 11:03:00,75.0,67.6,29.59,SSE,167,0.0,0.9,78,0.00,,,0.00,meteobridge,2013-06-29 15:03:00,
2013-06-29 11:08:00,75.2,67.1,29.59,NW,312,0.0,4.0,76,0.00,,,0.00,meteobridge,2013-06-29 15:08:00,
2013-06-29 11:14:00,75.6,67.5,29.59,NW,306,0.0,2.0,76,0.00,,,0.00,meteobridge,2013-06-29 15:14:00,
2013-06-29 11:19:00,75.9,68.2,29.59,SW,219,0.9,0.9,77,0.00,,,0.00,meteobridge,2013-06-29 15:19:00,
2013-06-29 11:24:00,76.1,68.0,29.59,WSW,243,2.0,4.0,76,0.00,,,0.00,meteobridge,2013-06-29 15:24:00,
2013-06-29 11:30:00,76.5,68.4,29.59,WNW,294,0.9,4.9,76,0.00,,,0.00,meteobridge,2013-06-29 15:30:00,
2013-06-29 11:35:00,76.6,67.6,29.59,SSW,194,0.0,2.9,74,0.00,,,0.00,meteobridge,2013-06-29 15:35:00,
2013-06-29 11:40:00,76.8,68.4,29.59,WNW,291,0.0,0.9,75,0.00,,,0.00,meteobridge,2013-06-29 15:40:00,
2013-06-29 11:45:00,76.8,68.4,29.59,NW,315,0.0,2.9,75,0.00,,,0.00,meteobridge,2013-06-29 15:45:00,
2013-06-29 11:51:00,76.8,67.5,29.59,SW,217,0.9,2.0,73,0.00,,,0.00,meteobridge,2013-06-29 15:51:00,
2013-06-29 11:56:00,76.8,68.4,29.59,SSW,193,0.0,2.9,75,0.00,,,0.00,meteobridge,2013-06-29 15:56:00,
2013-06-29 12:02:00,77.0,67.3,29.59,SSW,194,0.0,2.9,72,0.00,,,0.00,meteobridge,2013-06-29 16:02:00,
2013-06-29 12:07:00,77.0,67.3,29.59,NW,312,0.9,2.0,72,0.00,,,0.00,meteobridge,2013-06-29 16:07:00,
2013-06-29 12:12:00,77.0,68.0,29.59,SSW,202,0.9,2.0,74,0.00,,,0.00,meteobridge,2013-06-29 16:12:00,
2013-06-29 12:18:00,77.2,68.2,29.59,NW,304,0.0,2.0,74,0.00,,,0.00,meteobridge,2013-06-29 16:18:00,
2013-06-29 12:23:00,77.7,68.4,29.59,WNW,300,2.0,4.0,73,0.00,,,0.00,meteobridge,2013-06-29 16:23:00,
2013-06-29 12:28:00,78.1,67.8,29.59,ENE,78,0.0,2.0,71,0.00,,,0.00,meteobridge,2013-06-29 16:28:00,
2013-06-29 12:33:00,78.4,67.5,29.59,North,0,0.0,4.0,69,0.00,,,0.00,meteobridge,2013-06-29 16:33:00,
2013-06-29 12:39:00,79.0,67.5,29.59,North,0,0.0,0.0,68,0.00,,,0.00,meteobridge,2013-06-29 16:39:00,
2013-06-29 12:44:00,79.3,66.6,29.59,North,0,0.0,0.0,65,0.00,,,0.00,meteobridge,2013-06-29 16:44:00,
2013-06-29 12:49:00,79.9,68.4,29.59,North,0,0.0,0.0,68,0.00,,,0.00,meteobridge,2013-06-29 16:49:00,
2013-06-29 12:55:00,81.0,66.7,29.59,North,0,0.0,0.0,62,0.00,,,0.00,meteobridge,2013-06-29 16:55:00,
2013-06-29 13:01:00,81.7,66.9,29.59,North,0,0.0,0.0,61,0.00,,,0.00,meteobridge,2013-06-29 17:01:00,
2013-06-29 13:06:00,82.8,68.0,29.59,North,0,0.0,0.0,61,0.00,,,0.00,meteobridge,2013-06-29 17:06:00,
2013-06-29 13:11:00,83.3,68.4,29.59,North,0,0.0,0.0,61,0.00,,,0.00,meteobridge,2013-06-29 17:11:00,
2013-06-29 13:17:00,83.7,68.7,29.59,North,0,0.0,0.0,61,0.00,,,0.00,meteobridge,2013-06-29 17:17:00,
2013-06-29 13:22:00,84.0,67.6,29.59,North,0,0.0,0.0,58,0.00,,,0.00,meteobridge,2013-06-29 17:22:00,
2013-06-29 13:28:00,84.4,66.4,29.59,North,0,0.0,0.0,55,0.00,,,0.00,meteobridge,2013-06-29 17:28:00,
2013-06-29 13:33:00,83.8,66.4,29.59,North,0,0.0,0.0,56,0.00,,,0.00,meteobridge,2013-06-29 17:33:00,
2013-06-29 13:39:00,83.3,66.9,29.59,North,0,0.0,0.0,58,0.00,,,0.00,meteobridge,2013-06-29 17:39:00,
2013-06-29 13:44:00,83.3,67.5,29.59,North,0,0.0,0.0,59,0.00,,,0.00,meteobridge,2013-06-29 17:44:00,
2013-06-29 13:49:00,83.1,70.2,29.59,West,265,0.0,2.9,65,0.01,,,0.01,meteobridge,2013-06-29 17:49:00,
2013-06-29 13:55:00,82.9,70.3,29.59,WSW,248,0.9,4.0,66,0.01,,,0.01,meteobridge,2013-06-29 17:55:00,
2013-06-29 14:00:00,82.8,68.4,29.59,South,185,0.9,4.0,62,0.01,,,0.01,meteobridge,2013-06-29 18:00:00,
2013-06-29 14:06:00,82.8,68.0,29.59,NNW,340,2.0,2.9,61,0.01,,,0.01,meteobridge,2013-06-29 18:06:00,
2013-06-29 14:11:00,82.0,69.1,29.59,WSW,257,0.0,2.9,65,0.01,,,0.01,meteobridge,2013-06-29 18:11:00,
2013-06-29 14:16:00,81.9,69.4,29.59,NNW,348,2.0,4.0,66,0.01,,,0.01,meteobridge,2013-06-29 18:16:00,
2013-06-29 14:21:00,81.9,68.0,29.59,SE,140,0.0,2.0,63,0.01,,,0.01,meteobridge,2013-06-29 18:21:00,
2013-06-29 14:26:00,81.9,70.7,29.59,West,265,2.0,2.9,69,0.01,,,0.01,meteobridge,2013-06-29 18:26:00,
2013-06-29 14:32:00,81.9,68.9,29.59,South,188,2.0,6.0,65,0.01,,,0.01,meteobridge,2013-06-29 18:32:00,
2013-06-29 14:37:00,82.0,69.1,29.59,NW,308,0.0,2.9,65,0.01,,,0.01,meteobridge,2013-06-29 18:37:00,
2013-06-29 14:42:00,82.0,69.1,29.59,SE,136,0.0,2.0,65,0.01,,,0.01,meteobridge,2013-06-29 18:42:00,
2013-06-29 14:48:00,82.2,68.9,29.59,South,171,2.0,6.0,64,0.00,,,0.01,meteobridge,2013-06-29 18:48:00,
2013-06-29 14:53:00,82.2,70.5,29.59,South,182,0.9,4.9,68,0.00,,,0.01,meteobridge,2013-06-29 18:53:00,
2013-06-29 14:59:00,82.2,69.3,29.60,SSW,198,6.9,6.9,65,0.00,,,0.01,meteobridge,2013-06-29 18:59:00,
2013-06-29 15:04:00,82.0,68.7,29.60,South,180,6.0,8.1,64,0.00,,,0.01,meteobridge,2013-06-29 19:04:00,
2013-06-29 15:09:00,82.0,70.0,29.59,SSE,159,2.9,4.0,67,0.00,,,0.01,meteobridge,2013-06-29 19:09:00,
2013-06-29 15:15:00,82.2,70.2,29.59,West,265,0.0,2.0,67,0.00,,,0.01,meteobridge,2013-06-29 19:15:00,
2013-06-29 15:20:00,82.2,69.8,29.59,SW,218,0.9,4.9,66,0.00,,,0.01,meteobridge,2013-06-29 19:20:00,
2013-06-29 15:25:00,82.2,69.8,29.60,South,177,0.0,6.9,66,0.00,,,0.01,meteobridge,2013-06-29 19:25:00,
2013-06-29 15:31:00,82.2,70.2,29.60,SE,145,2.0,4.9,67,0.00,,,0.01,meteobridge,2013-06-29 19:31:00,
2013-06-29 15:36:00,82.2,70.2,29.60,SSE,157,4.0,6.0,67,0.00,,,0.01,meteobridge,2013-06-29 19:36:00,
2013-06-29 15:41:00,82.0,72.5,29.60,South,180,6.0,6.0,73,0.00,,,0.01,meteobridge,2013-06-29 19:41:00,
2013-06-29 15:46:00,82.2,72.3,29.60,SSE,168,0.0,4.0,72,0.00,,,0.01,meteobridge,2013-06-29 19:46:00,
2013-06-29 15:52:00,82.4,72.9,29.60,SSE,164,2.0,2.9,73,0.00,,,0.01,meteobridge,2013-06-29 19:52:00,
2013-06-29 15:57:00,82.6,72.7,29.60,South,180,8.9,10.1,72,0.00,,,0.01,meteobridge,2013-06-29 19:57:00,
2013-06-29 16:02:00,82.4,72.0,29.60,SSW,201,8.9,8.9,71,0.00,,,0.01,meteobridge,2013-06-29 20:02:00,
2013-06-29 16:07:00,82.0,72.1,29.61,South,182,6.9,10.1,72,0.00,,,0.01,meteobridge,2013-06-29 20:07:00,
2013-06-29 16:12:00,81.7,71.4,29.61,SSE,167,6.0,15.0,71,0.00,,,0.01,meteobridge,2013-06-29 20:12:00,
2013-06-29 16:18:00,81.3,70.5,29.61,WSW,254,0.0,8.9,70,0.00,,,0.01,meteobridge,2013-06-29 20:18:00,
2013-06-29 16:23:00,81.1,70.9,29.61,SSW,210,0.9,13.0,71,0.00,,,0.01,meteobridge,2013-06-29 20:23:00,
2013-06-29 16:29:00,81.0,71.1,29.61,South,171,8.9,14.1,72,0.00,,,0.01,meteobridge,2013-06-29 20:29:00,
2013-06-29 16:34:00,80.8,71.8,29.61,SE,127,8.9,8.9,74,0.00,,,0.01,meteobridge,2013-06-29 20:34:00,
2013-06-29 16:39:00,80.6,70.7,29.61,SSW,212,0.0,10.1,72,0.00,,,0.01,meteobridge,2013-06-29 20:39:00,
2013-06-29 16:45:00,80.4,70.9,29.62,South,187,2.9,10.1,73,0.00,,,0.01,meteobridge,2013-06-29 20:45:00,
2013-06-29 16:50:00,80.2,70.9,29.62,South,189,6.0,11.0,73,0.00,,,0.01,meteobridge,2013-06-29 20:50:00,
2013-06-29 16:56:00,80.1,70.7,29.62,SSW,205,2.0,11.0,73,0.00,,,0.01,meteobridge,2013-06-29 20:56:00,
2013-06-29 17:01:00,79.9,71.6,29.62,South,185,0.9,4.9,76,0.00,,,0.01,meteobridge,2013-06-29 21:01:00,
2013-06-29 17:07:00,79.7,71.1,29.62,South,185,2.0,12.1,75,0.00,,,0.01,meteobridge,2013-06-29 21:07:00,
2013-06-29 17:12:00,79.3,70.3,29.62,SSW,207,6.9,11.0,74,0.00,,,0.01,meteobridge,2013-06-29 21:12:00,
2013-06-29 17:17:00,79.3,70.3,29.62,South,182,2.0,8.1,74,0.00,,,0.01,meteobridge,2013-06-29 21:17:00,
2013-06-29 17:23:00,79.2,70.2,29.62,South,175,0.0,6.0,74,0.00,,,0.01,meteobridge,2013-06-29 21:23:00,
2013-06-29 17:28:00,79.2,70.9,29.62,South,171,0.9,6.0,76,0.00,,,0.01,meteobridge,2013-06-29 21:28:00,
2013-06-29 17:33:00,79.2,70.2,29.62,South,188,2.0,11.0,74,0.00,,,0.01,meteobridge,2013-06-29 21:33:00,
2013-06-29 17:38:00,79.0,70.7,29.62,SSE,167,2.9,10.1,76,0.00,,,0.01,meteobridge,2013-06-29 21:38:00,
2013-06-29 17:44:00,78.8,70.5,29.62,SSW,200,4.0,6.9,76,0.00,,,0.01,meteobridge,2013-06-29 21:44:00,
2013-06-29 17:49:00,78.8,71.4,29.62,South,186,2.0,4.9,78,0.00,,,0.01,meteobridge,2013-06-29 21:49:00,
2013-06-29 17:54:00,79.0,70.7,29.62,South,189,6.0,6.9,76,0.00,,,0.01,meteobridge,2013-06-29 21:54:00,
2013-06-29 18:00:00,78.8,71.1,29.62,South,169,2.0,6.0,77,0.00,,,0.01,meteobridge,2013-06-29 22:00:00,
2013-06-29 18:05:00,79.0,71.1,29.62,South,180,8.1,11.0,77,0.00,,,0.01,meteobridge,2013-06-29 22:05:00,
2013-06-29 18:11:00,79.0,71.6,29.62,South,180,0.0,2.9,78,0.00,,,0.01,meteobridge,2013-06-29 22:11:00,
2013-06-29 18:16:00,79.2,71.2,29.62,SSE,156,0.9,6.9,77,0.00,,,0.01,meteobridge,2013-06-29 22:16:00,
2013-06-29 18:22:00,79.0,70.7,29.62,SSE,160,2.0,6.9,76,0.00,,,0.01,meteobridge,2013-06-29 22:22:00,
2013-06-29 18:27:00,79.0,70.7,29.62,South,184,2.0,8.9,76,0.00,,,0.01,meteobridge,2013-06-29 22:27:00,
2013-06-29 18:32:00,79.0,71.1,29.62,SSE,155,2.9,6.0,77,0.00,,,0.01,meteobridge,2013-06-29 22:32:00,
2013-06-29 18:38:00,78.6,70.3,29.62,SSE,168,0.9,4.0,76,0.00,,,0.01,meteobridge,2013-06-29 22:38:00,
2013-06-29 18:43:00,78.4,70.7,29.63,South,173,2.0,6.9,77,0.00,,,0.01,meteobridge,2013-06-29 22:43:00,
2013-06-29 18:48:00,78.4,70.7,29.63,SE,142,6.0,6.9,77,0.00,,,0.01,meteobridge,2013-06-29 22:48:00,
2013-06-29 18:54:00,78.3,70.9,29.63,SE,146,2.9,6.9,78,0.00,,,0.01,meteobridge,2013-06-29 22:54:00,
2013-06-29 18:59:00,78.1,70.7,29.64,SSE,163,2.9,10.1,78,0.00,,,0.01,meteobridge,2013-06-29 22:59:00,
2013-06-29 19:04:00,77.7,70.3,29.64,South,175,2.9,8.1,78,0.00,,,0.01,meteobridge,2013-06-29 23:04:00,
2013-06-29 19:10:00,77.5,70.5,29.64,South,181,4.0,8.1,79,0.00,,,0.01,meteobridge,2013-06-29 23:10:00,
2013-06-29 19:15:00,77.4,70.3,29.64,South,169,4.9,4.9,79,0.00,,,0.01,meteobridge,2013-06-29 23:15:00,
2013-06-29 19:20:00,77.0,70.0,29.64,SSE,154,2.0,6.0,79,0.00,,,0.01,meteobridge,2013-06-29 23:20:00,
2013-06-29 19:25:00,76.6,69.6,29.64,SSE,156,0.9,10.1,79,0.00,,,0.01,meteobridge,2013-06-29 23:25:00,
2013-06-29 19:31:00,76.5,69.8,29.64,South,187,4.0,4.9,80,0.00,,,0.01,meteobridge,2013-06-29 23:31:00,
2013-06-29 19:36:00,76.3,69.3,29.64,WSW,244,2.0,10.1,79,0.00,,,0.01,meteobridge,2013-06-29 23:36:00,
2013-06-29 19:41:00,75.9,69.6,29.64,South,187,4.9,8.1,81,0.00,,,0.01,meteobridge,2013-06-29 23:41:00,
2013-06-29 19:47:00,75.7,69.1,29.64,SE,144,0.9,2.9,80,0.00,,,0.01,meteobridge,2013-06-29 23:47:00,
2013-06-29 19:52:00,75.7,69.4,29.65,SSE,157,2.0,4.0,81,0.00,,,0.01,meteobridge,2013-06-29 23:52:00,
2013-06-29 19:57:00,75.6,69.6,29.65,SSW,203,2.9,4.9,82,0.00,,,0.01,meteobridge,2013-06-29 23:57:00,
2013-06-29 20:03:00,75.2,69.3,29.65,South,169,2.9,6.0,82,0.00,,,0.00,meteobridge,2013-06-30 00:03:00,
2013-06-29 20:08:00,74.8,69.3,29.65,South,178,2.0,6.0,83,0.00,,,0.00,meteobridge,2013-06-30 00:08:00,
2013-06-29 20:14:00,74.7,69.4,29.65,SSE,162,0.9,4.0,84,0.00,,,0.00,meteobridge,2013-06-30 00:14:00,
2013-06-29 20:19:00,74.5,69.3,29.65,South,180,0.0,8.1,84,0.00,,,0.00,meteobridge,2013-06-30 00:19:00,
2013-06-29 20:24:00,74.3,69.4,29.65,SE,142,0.0,2.0,85,0.00,,,0.00,meteobridge,2013-06-30 00:24:00,
2013-06-29 20:29:00,73.9,69.1,29.66,SSE,157,2.9,4.0,85,0.00,,,0.00,meteobridge,2013-06-30 00:29:00,
2013-06-29 20:34:00,73.9,69.4,29.66,SE,128,0.0,2.0,86,0.00,,,0.00,meteobridge,2013-06-30 00:34:00,
2013-06-29 20:40:00,73.6,69.1,29.66,ESE,105,0.0,0.9,86,0.00,,,0.00,meteobridge,2013-06-30 00:40:00,
2013-06-29 20:45:00,73.4,69.3,29.67,North,355,0.0,2.0,87,0.00,,,0.00,meteobridge,2013-06-30 00:45:00,
2013-06-29 20:50:00,73.2,69.1,29.67,SSE,167,0.0,2.0,87,0.00,,,0.00,meteobridge,2013-06-30 00:50:00,
2013-06-29 20:56:00,73.0,69.3,29.67,South,184,2.0,2.9,88,0.00,,,0.00,meteobridge,2013-06-30 00:56:00,
2013-06-29 21:01:00,73.0,69.3,29.67,SSE,166,0.0,0.9,88,0.00,,,0.00,meteobridge,2013-06-30 01:01:00,
2013-06-29 21:07:00,72.9,69.4,29.67,NNE,22,0.0,2.0,89,0.00,,,0.00,meteobridge,2013-06-30 01:07:00,
2013-06-29 21:13:00,72.9,69.8,29.67,South,190,0.0,0.9,90,0.00,,,0.00,meteobridge,2013-06-30 01:13:00,
2013-06-29 21:18:00,72.7,69.6,29.67,WNW,300,0.0,0.0,90,0.00,,,0.00,meteobridge,2013-06-30 01:18:00,
2013-06-29 21:23:00,72.7,69.6,29.68,SE,125,0.0,0.9,90,0.00,,,0.00,meteobridge,2013-06-30 01:23:00,
2013-06-29 21:28:00,72.5,69.8,29.68,WSW,238,0.0,2.0,91,0.00,,,0.00,meteobridge,2013-06-30 01:28:00,
2013-06-29 21:34:00,72.3,69.3,29.68,South,176,2.0,2.9,90,0.00,,,0.00,meteobridge,2013-06-30 01:34:00,
2013-06-29 21:39:00,72.3,69.6,29.68,NW,313,0.0,0.9,91,0.00,,,0.00,meteobridge,2013-06-30 01:39:00,
2013-06-29 21:45:00,72.3,69.6,29.69,South,172,0.0,0.0,91,0.00,,,0.00,meteobridge,2013-06-30 01:45:00,
2013-06-29 21:50:00,72.1,69.4,29.69,WSW,248,0.0,0.9,91,0.00,,,0.00,meteobridge,2013-06-30 01:50:00,
2013-06-29 21:56:00,72.1,69.4,29.69,South,189,0.0,0.0,91,0.00,,,0.00,meteobridge,2013-06-30 01:56:00,
2013-06-29 22:01:00,72.0,69.3,29.69,NW,320,0.0,2.0,91,0.00,,,0.00,meteobridge,2013-06-30 02:01:00,
2013-06-29 22:06:00,71.8,69.1,29.69,NW,320,0.0,0.0,91,0.00,,,0.00,meteobridge,2013-06-30 02:06:00,
2013-06-29 22:11:00,71.8,69.1,29.69,NNW,336,0.0,0.0,91,0.00,,,0.00,meteobridge,2013-06-30 02:11:00,
2013-06-29 22:16:00,71.4,68.9,29.69,South,188,2.0,2.9,92,0.00,,,0.00,meteobridge,2013-06-30 02:16:00,
2013-06-29 22:21:00,71.4,68.9,29.69,South,186,2.0,2.9,92,0.00,,,0.00,meteobridge,2013-06-30 02:21:00,
2013-06-29 22:27:00,71.2,69.1,29.69,South,173,2.0,2.0,93,0.00,,,0.00,meteobridge,2013-06-30 02:27:00,
2013-06-29 22:32:00,71.2,68.7,29.69,South,178,0.9,2.0,92,0.00,,,0.00,meteobridge,2013-06-30 02:32:00,
2013-06-29 22:34:00,71.2,68.7,29.70,South,170,0.9,4.0,92,0.00,,,0.00,meteobridge,2013-06-30 02:34:00,
2013-06-29 22:40:00,71.1,68.5,29.70,South,170,0.0,0.0,92,0.00,,,0.00,meteobridge,2013-06-30 02:40:00,
2013-06-29 22:45:00,71.1,68.9,29.70,SE,146,0.0,2.0,93,0.00,,,0.00,meteobridge,2013-06-30 02:45:00,
2013-06-29 22:50:00,70.9,68.7,29.70,South,174,4.0,4.0,93,0.00,,,0.00,meteobridge,2013-06-30 02:50:00,
2013-06-29 22:55:00,70.9,68.7,29.70,SSE,161,0.0,4.0,93,0.00,,,0.00,meteobridge,2013-06-30 02:55:00,
2013-06-29 23:01:00,70.9,69.1,29.70,South,171,0.0,2.0,94,0.00,,,0.00,meteobridge,2013-06-30 03:01:00,
2013-06-29 23:06:00,70.7,68.9,29.70,South,171,0.0,0.0,94,0.00,,,0.00,meteobridge,2013-06-30 03:06:00,
2013-06-29 23:11:00,70.5,68.7,29.70,SSE,167,0.0,0.0,94,0.00,,,0.00,meteobridge,2013-06-30 03:11:00,
2013-06-29 23:16:00,70.5,68.7,29.70,SSE,167,0.0,0.0,94,0.00,,,0.00,meteobridge,2013-06-30 03:16:00,
2013-06-29 23:17:00,70.5,68.7,29.70,SSE,167,0.9,0.9,94,0.00,,,0.00,meteobridge,2013-06-30 03:17:00,
2013-06-29 23:23:00,70.3,68.5,29.70,SSE,167,0.0,0.0,94,0.00,,,0.00,meteobridge,2013-06-30 03:23:00,
2013-06-29 23:28:00,70.3,68.5,29.70,SSE,167,0.0,0.0,94,0.00,,,0.00,meteobridge,2013-06-30 03:28:00,
2013-06-29 23:34:00,70.2,68.4,29.71,SSE,167,0.0,0.0,94,0.00,,,0.00,meteobridge,2013-06-30 03:34:00,
2013-06-29 23:39:00,70.2,68.4,29.71,SSE,167,0.0,0.0,94,0.00,,,0.00,meteobridge,2013-06-30 03:39:00,
2013-06-29 23:44:00,70.0,68.2,29.71,SSE,167,0.0,0.0,94,0.00,,,0.00,meteobridge,2013-06-30 03:44:00,
2013-06-29 23:49:00,70.0,68.2,29.71,SSE,167,0.0,0.0,94,0.00,,,0.00,meteobridge,2013-06-30 03:49:00,
2013-06-29 23:54:00,70.0,68.2,29.71,SSE,167,0.0,0.0,94,0.00,,,0.00,meteobridge,2013-06-30 03:54:00,